| time (UTC) | temp F | wind direction | speed MPH | gust MPH | rain 1hr in | rain 24hr in | rain mn in | humidity % | barometer mb |
| 20260506212025 | 59 | 196 | 3.0 | 3.0 | 0.00 | 0.01 | 0.01 | 78 | 1019.3 |
| 20260506211521 | 60 | 115 | 2.0 | 2.0 | 0.00 | 0.01 | 0.01 | 79 | 1019.3 |
| 20260506211018 | 60 | 211 | 2.0 | 2.0 | 0.00 | 0.01 | 0.01 | 76 | 1018.9 |
| 20260506210515 | 60 | 252 | 0.0 | 1.0 | 0.00 | 0.01 | 0.01 | 76 | 1019.3 |
| 20260506210011 | 60 | 213 | 1.0 | 2.0 | 0.00 | 0.01 | 0.01 | 78 | 1019.3 |
| 20260506205508 | 59 | 227 | 0.0 | 0.0 | 0.00 | 0.01 | 0.01 | 78 | 1019.3 |
| 20260506205003 | 59 | 216 | 0.0 | 1.0 | 0.00 | 0.01 | 0.01 | 79 | 1018.9 |
| 20260506204501 | 59 | 238 | 0.0 | 1.0 | 0.00 | 0.01 | 0.01 | 80 | 1018.9 |
| 20260506203953 | 59 | 92 | 5.0 | 6.0 | 0.00 | 0.01 | 0.01 | 80 | 1018.9 |
| 20260506203450 | 59 | 221 | 1.0 | 1.0 | 0.00 | 0.01 | 0.01 | 85 | 1018.9 |
| 20260506202947 | 58 | 127 | 3.0 | 3.0 | 0.00 | 0.01 | 0.01 | 85 | 1019.3 |
| 20260506202444 | 59 | 145 | 2.0 | 3.0 | 0.00 | 0.01 | 0.01 | 85 | 1018.9 |
| 20260506201940 | 58 | 204 | 0.0 | 0.0 | 0.00 | 0.01 | 0.01 | 84 | 1019.3 |
| 20260506201438 | 59 | 255 | 2.0 | 2.0 | 0.00 | 0.01 | 0.01 | 84 | 1018.9 |
| 20260506200934 | 58 | 207 | 0.0 | 0.0 | 0.00 | 0.01 | 0.01 | 83 | 1018.9 |
| 20260506200431 | 58 | 127 | 2.0 | 3.0 | 0.00 | 0.01 | 0.01 | 80 | 1018.9 |
| 20260506195927 | 58 | 202 | 2.0 | 2.0 | 0.00 | 0.01 | 0.01 | 81 | 1018.9 |
| 20260506195424 | 59 | 206 | 1.0 | 1.0 | 0.00 | 0.01 | 0.01 | 80 | 1018.9 |
| 20260506194921 | 59 | 254 | 0.0 | 0.0 | 0.00 | 0.01 | 0.01 | 78 | 1018.9 |
| 20260506194418 | 59 | 251 | 0.0 | 0.0 | 0.00 | 0.01 | 0.01 | 80 | 1018.9 |
| 20260506193915 | 59 | 156 | 1.0 | 1.0 | 0.00 | 0.01 | 0.01 | 79 | 1018.9 |
| 20260506193412 | 59 | 221 | 0.0 | 1.0 | 0.00 | 0.01 | 0.01 | 78 | 1018.9 |
| 20260506192908 | 58 | 303 | 1.0 | 1.0 | 0.00 | 0.01 | 0.01 | 83 | 1018.9 |
| 20260506192406 | 58 | 252 | 0.0 | 0.0 | 0.00 | 0.01 | 0.01 | 83 | 1019.3 |
| 20260506191902 | 58 | 155 | 3.0 | 5.0 | 0.00 | 0.01 | 0.01 | 81 | 1018.9 |
| 20260506191359 | 58 | 199 | 1.0 | 1.0 | 0.00 | 0.01 | 0.01 | 81 | 1018.9 |
| 20260506190856 | 58 | 314 | 0.0 | 1.0 | 0.00 | 0.01 | 0.01 | 82 | 1018.6 |
| 20260506190352 | 57 | 301 | 0.0 | 1.0 | 0.00 | 0.01 | 0.01 | 83 | 1018.9 |
| 20260506185849 | 58 | 210 | 1.0 | 3.0 | 0.00 | 0.01 | 0.01 | 82 | 1018.9 |
| 20260506185346 | 58 | 245 | 3.0 | 5.0 | 0.00 | 0.01 | 0.01 | 81 | 1018.6 |
| 20260506184843 | 57 | 229 | 0.0 | 0.0 | 0.00 | 0.01 | 0.01 | 84 | 1018.9 |
| 20260506184340 | 57 | 205 | 1.0 | 1.0 | 0.00 | 0.01 | 0.01 | 82 | 1018.6 |
| 20260506183837 | 57 | 219 | 1.0 | 1.0 | 0.00 | 0.01 | 0.01 | 84 | 1018.6 |
| 20260506183333 | 56 | 277 | 0.0 | 0.0 | 0.00 | 0.01 | 0.01 | 89 | 1018.9 |
| 20260506182830 | 56 | 148 | 3.0 | 3.0 | 0.00 | 0.01 | 0.01 | 85 | 1018.6 |
| 20260506182327 | 56 | 317 | 1.0 | 1.0 | 0.00 | 0.01 | 0.01 | 89 | 1018.9 |
| 20260506181825 | 55 | 178 | 2.0 | 2.0 | 0.00 | 0.01 | 0.01 | 87 | 1018.9 |
| 20260506181322 | 55 | 278 | 0.0 | 0.0 | 0.00 | 0.01 | 0.01 | 91 | 1018.9 |
| 20260506180819 | 55 | 213 | 1.0 | 1.0 | 0.00 | 0.01 | 0.01 | 90 | 1018.9 |
| 20260506180315 | 55 | 238 | 0.0 | 0.0 | 0.00 | 0.01 | 0.01 | 93 | 1018.9 |
| 20260506175812 | 55 | 299 | 0.0 | 1.0 | 0.00 | 0.01 | 0.01 | 93 | 1018.9 |
| 20260506175309 | 54 | 198 | 0.0 | 1.0 | 0.00 | 0.01 | 0.01 | 93 | 1018.9 |
| 20260506174806 | 54 | 259 | 0.0 | 0.0 | 0.00 | 0.01 | 0.01 | 93 | 1018.9 |
| 20260506174303 | 53 | 279 | 1.0 | 1.0 | 0.00 | 0.01 | 0.01 | 91 | 1018.9 |
| 20260506173801 | 53 | 242 | 0.0 | 0.0 | 0.00 | 0.01 | 0.01 | 95 | 1018.6 |
| 20260506173257 | 53 | 314 | 1.0 | 1.0 | 0.00 | 0.01 | 0.01 | 95 | 1018.9 |
| 20260506172754 | 52 | 84 | 1.0 | 1.0 | 0.00 | 0.01 | 0.01 | 96 | 1018.9 |
| 20260506172251 | 53 | 139 | 3.0 | 5.0 | 0.00 | 0.01 | 0.01 | 96 | 1018.9 |
| 20260506171748 | 53 | 297 | 0.0 | 0.0 | 0.00 | 0.01 | 0.01 | 99 | 1018.6 |
| 20260506171245 | 52 | 275 | 0.0 | 0.0 | 0.00 | 0.01 | 0.01 | 99 | 1018.6 |
| 20260506170743 | 52 | 264 | 0.0 | 0.0 | 0.00 | 0.01 | 0.01 | 99 | 1018.6 |
| 20260506170239 | 52 | 283 | 0.0 | 0.0 | 0.00 | 0.01 | 0.01 | 99 | 1018.6 |
| 20260506165738 | 52 | 263 | 0.0 | 0.0 | 0.00 | 0.01 | 0.01 | 99 | 1018.6 |
| 20260506165235 | 52 | 296 | 0.0 | 0.0 | 0.00 | 0.01 | 0.01 | 99 | 1018.6 |
| 20260506164732 | 51 | 242 | 0.0 | 0.0 | 0.00 | 0.01 | 0.01 | 99 | 1018.6 |
| 20260506164229 | 51 | 226 | 0.0 | 0.0 | 0.00 | 0.01 | 0.01 | 99 | 1018.6 |
| 20260506163726 | 51 | 290 | 0.0 | 0.0 | 0.00 | 0.01 | 0.01 | 99 | 1018.6 |
| 20260506163220 | 51 | 245 | 0.0 | 0.0 | 0.00 | 0.01 | 0.01 | 99 | 1018.9 |
| 20260506162717 | 51 | 298 | 0.0 | 0.0 | 0.00 | 0.01 | 0.01 | 99 | 1018.6 |
| 20260506162214 | 51 | 282 | 0.0 | 0.0 | 0.00 | 0.01 | 0.01 | 99 | 1018.6 |
| 20260506161712 | 51 | 219 | 0.0 | 1.0 | 0.00 | 0.01 | 0.01 | 99 | 1018.6 |
| 20260506161209 | 51 | 215 | 0.0 | 1.0 | 0.00 | 0.01 | 0.01 | 99 | 1018.9 |
| 20260506160706 | 51 | 246 | 0.0 | 0.0 | 0.00 | 0.01 | 0.01 | 99 | 1018.9 |
| 20260506160202 | 51 | 296 | 0.0 | 0.0 | 0.00 | 0.01 | 0.01 | 99 | 1018.6 |
| 20260506155701 | 51 | 281 | 0.0 | 0.0 | 0.00 | 0.01 | 0.01 | 99 | 1018.6 |
| 20260506155158 | 50 | 250 | 0.0 | 0.0 | 0.00 | 0.01 | 0.01 | 99 | 1018.6 |
| 20260506153300 | 50 | 279 | 0.0 | 0.0 | 0.00 | 0.01 | 0.01 | 99 | 1018.6 |
| 20260506152756 | 50 | 244 | 0.0 | 0.0 | 0.00 | 0.01 | 0.01 | 99 | 1018.6 |
| 20260506152254 | 50 | 250 | 0.0 | 0.0 | 0.00 | 0.01 | 0.01 | 99 | 1018.6 |
| 20260506151753 | 50 | 237 | 0.0 | 0.0 | 0.00 | 0.01 | 0.01 | 99 | 1018.6 |
| 20260506151249 | 50 | 219 | 0.0 | 0.0 | 0.00 | 0.01 | 0.01 | 99 | 1018.6 |
| 20260506150745 | 50 | 198 | 0.0 | 1.0 | 0.00 | 0.01 | 0.01 | 99 | 1018.2 |
| 20260506150243 | 50 | 221 | 1.0 | 1.0 | 0.00 | 0.01 | 0.01 | 99 | 1018.6 |
| 20260506145740 | 50 | 252 | 0.0 | 0.0 | 0.05 | 0.01 | 0.01 | 99 | 1018.6 |
| 20260506145236 | 50 | 241 | 0.0 | 0.0 | 0.00 | 0.00 | 0.00 | 99 | 1018.6 |
| 20260506144734 | 50 | 238 | 0.0 | 0.0 | 0.00 | 0.00 | 0.00 | 99 | 1018.6 |
| 20260506144231 | 50 | 221 | 0.0 | 0.0 | 0.00 | 0.00 | 0.00 | 99 | 1018.6 |
| 20260506143728 | 50 | 225 | 0.0 | 0.0 | 0.00 | 0.00 | 0.00 | 99 | 1018.6 |
| 20260506143225 | 50 | 260 | 0.0 | 0.0 | 0.00 | 0.00 | 0.00 | 99 | 1018.6 |
| 20260506142724 | 50 | 199 | 1.0 | 1.0 | 0.00 | 0.00 | 0.00 | 99 | 1018.6 |
| 20260506142221 | 50 | 199 | 1.0 | 2.0 | 0.00 | 0.00 | 0.00 | 99 | 1018.2 |
| 20260506141719 | 50 | 237 | 0.0 | 0.0 | 0.00 | 0.00 | 0.00 | 99 | 1018.6 |
| 20260506141217 | 50 | 227 | 0.0 | 0.0 | 0.00 | 0.00 | 0.00 | 99 | 1018.2 |
| 20260506140715 | 50 | 229 | 0.0 | 0.0 | 0.00 | 0.00 | 0.00 | 99 | 1018.2 |
| 20260506140212 | 50 | 258 | 0.0 | 0.0 | 0.00 | 0.00 | 0.00 | 99 | 1018.6 |
| 20260506135708 | 50 | 276 | 0.0 | 0.0 | 0.00 | 0.00 | 0.00 | 99 | 1018.2 |
| 20260506135204 | 50 | 267 | 0.0 | 0.0 | 0.00 | 0.00 | 0.00 | 99 | 1018.2 |
| 20260506134701 | 50 | 225 | 0.0 | 0.0 | 0.00 | 0.00 | 0.00 | 99 | 1017.9 |
| 20260506134157 | 50 | 231 | 0.0 | 0.0 | 0.00 | 0.00 | 0.00 | 99 | 1018.2 |
| 20260506133655 | 50 | 237 | 0.0 | 0.0 | 0.00 | 0.00 | 0.00 | 99 | 1017.9 |
| 20260506133151 | 50 | 238 | 0.0 | 0.0 | 0.00 | 0.00 | 0.00 | 99 | 1017.9 |
| 20260506132649 | 50 | 232 | 0.0 | 0.0 | 0.00 | 0.00 | 0.00 | 99 | 1017.9 |
| 20260506132145 | 50 | 225 | 0.0 | 0.0 | 0.00 | 0.00 | 0.00 | 99 | 1017.9 |
| 20260506131643 | 50 | 234 | 0.0 | 0.0 | 0.00 | 0.00 | 0.00 | 99 | 1018.2 |
| 20260506131139 | 50 | 217 | 0.0 | 1.0 | 0.00 | 0.00 | 0.00 | 99 | 1017.9 |
| 20260506130636 | 50 | 208 | 0.0 | 1.0 | 0.00 | 0.00 | 0.00 | 99 | 1017.9 |
| 20260506130134 | 50 | 235 | 0.0 | 0.0 | 0.00 | 0.00 | 0.00 | 99 | 1017.9 |
| 20260506125632 | 50 | 223 | 0.0 | 0.0 | 0.00 | 0.00 | 0.00 | 99 | 1017.9 |
| 20260506125129 | 50 | 251 | 0.0 | 0.0 | 0.00 | 0.00 | 0.00 | 99 | 1017.9 |
| 20260506124627 | 50 | 248 | 0.0 | 0.0 | 0.00 | 0.00 | 0.00 | 99 | 1017.9 |
| 20260506124124 | 50 | 151 | 1.0 | 2.0 | 0.00 | 0.00 | 0.00 | 99 | 1017.9 |
| 20260506123622 | 50 | 228 | 0.0 | 0.0 | 0.00 | 0.00 | 0.00 | 99 | 1017.6 |
| 20260506123120 | 50 | 232 | 0.0 | 0.0 | 0.00 | 0.00 | 0.00 | 99 | 1017.6 |
| 20260506122617 | 50 | 186 | 0.0 | 0.0 | 0.00 | 0.00 | 0.00 | 99 | 1017.6 |
| 20260506122115 | 50 | 203 | 0.0 | 0.0 | 0.00 | 0.00 | 0.00 | 99 | 1017.6 |
| 20260506121612 | 50 | 204 | 0.0 | 1.0 | 0.00 | 0.00 | 0.00 | 99 | 1017.6 |
| 20260506121108 | 50 | 246 | 0.0 | 0.0 | 0.00 | 0.00 | 0.00 | 99 | 1017.6 |
| 20260506120606 | 50 | 233 | 0.0 | 0.0 | 0.00 | 0.00 | 0.00 | 99 | 1017.6 |
| 20260506120103 | 50 | 217 | 0.0 | 0.0 | 0.00 | 0.00 | 0.00 | 99 | 1017.6 |
| 20260506115602 | 50 | 203 | 1.0 | 1.0 | 0.00 | 0.00 | 0.00 | 99 | 1017.6 |
| 20260506115059 | 50 | 208 | 0.0 | 0.0 | 0.00 | 0.00 | 0.00 | 99 | 1017.6 |
| 20260506114556 | 50 | 231 | 0.0 | 0.0 | 0.00 | 0.00 | 0.00 | 99 | 1017.6 |
| 20260506114055 | 50 | 192 | 0.0 | 1.0 | 0.00 | 0.00 | 0.00 | 99 | 1017.2 |
| 20260506113552 | 50 | 213 | 0.0 | 0.0 | 0.00 | 0.00 | 0.00 | 99 | 1017.6 |
| 20260506113049 | 50 | 171 | 1.0 | 1.0 | 0.00 | 0.00 | 0.00 | 99 | 1017.6 |
| 20260506112546 | 50 | 223 | 0.0 | 0.0 | 0.00 | 0.00 | 0.00 | 99 | 1017.2 |
| 20260506112043 | 50 | 213 | 0.0 | 1.0 | 0.00 | 0.00 | 0.00 | 99 | 1017.2 |
| 20260506111541 | 50 | 230 | 0.0 | 0.0 | 0.00 | 0.00 | 0.00 | 99 | 1017.2 |
| 20260506111038 | 50 | 219 | 0.0 | 0.0 | 0.00 | 0.00 | 0.00 | 99 | 1017.2 |
| 20260506110536 | 50 | 241 | 0.0 | 0.0 | 0.00 | 0.00 | 0.00 | 99 | 1016.9 |
| 20260506110033 | 50 | 223 | 0.0 | 0.0 | 0.00 | 0.00 | 0.00 | 99 | 1017.2 |
| 20260506105529 | 50 | 224 | 0.0 | 0.0 | 0.00 | 0.00 | 0.00 | 99 | 1016.9 |
| 20260506105026 | 50 | 224 | 0.0 | 0.0 | 0.00 | 0.00 | 0.00 | 99 | 1016.9 |
| 20260506104524 | 50 | 215 | 0.0 | 0.0 | 0.00 | 0.00 | 0.00 | 99 | 1017.2 |
| 20260506104022 | 50 | 202 | 0.0 | 1.0 | 0.00 | 0.00 | 0.00 | 99 | 1016.9 |
| 20260506103519 | 50 | 192 | 0.0 | 1.0 | 0.00 | 0.00 | 0.00 | 99 | 1016.9 |
| 20260506103015 | 50 | 224 | 0.0 | 0.0 | 0.00 | 0.00 | 0.00 | 99 | 1017.2 |
| 20260506102514 | 50 | 224 | 0.0 | 0.0 | 0.00 | 0.00 | 0.00 | 99 | 1017.2 |
| 20260506102011 | 50 | 218 | 0.0 | 0.0 | 0.00 | 0.00 | 0.00 | 99 | 1016.9 |
| 20260506101507 | 50 | 206 | 1.0 | 1.0 | 0.00 | 0.00 | 0.00 | 99 | 1016.9 |
| 20260506101004 | 50 | 211 | 1.0 | 1.0 | 0.00 | 0.00 | 0.00 | 99 | 1016.9 |
| 20260506100503 | 50 | 222 | 0.0 | 0.0 | 0.00 | 0.00 | 0.00 | 99 | 1016.9 |
| 20260506100001 | 50 | 224 | 1.0 | 1.0 | 0.00 | 0.00 | 0.00 | 99 | 1016.9 |
| 20260506095459 | 50 | 206 | 0.0 | 0.0 | 0.00 | 0.00 | 0.00 | 99 | 1016.9 |
| 20260506094955 | 50 | 208 | 0.0 | 0.0 | 0.00 | 0.00 | 0.00 | 99 | 1016.9 |
| 20260506094453 | 49 | 208 | 0.0 | 0.0 | 0.00 | 0.00 | 0.00 | 99 | 1016.9 |
| 20260506093950 | 49 | 208 | 0.0 | 0.0 | 0.00 | 0.00 | 0.00 | 99 | 1016.9 |
| 20260506093449 | 49 | 208 | 0.0 | 0.0 | 0.00 | 0.00 | 0.00 | 99 | 1016.9 |
| 20260506092946 | 49 | 208 | 0.0 | 0.0 | 0.00 | 0.00 | 0.00 | 99 | 1016.9 |
| 20260506092444 | 49 | 209 | 0.0 | 0.0 | 0.00 | 0.00 | 0.00 | 99 | 1016.9 |
| 20260506091940 | 48 | 209 | 0.0 | 0.0 | 0.00 | 0.00 | 0.00 | 99 | 1016.6 |
| 20260506091438 | 48 | 209 | 0.0 | 0.0 | 0.00 | 0.00 | 0.00 | 99 | 1016.9 |
| 20260506090935 | 48 | 208 | 0.0 | 0.0 | 0.00 | 0.00 | 0.00 | 99 | 1016.9 |
| 20260506090433 | 48 | 208 | 0.0 | 0.0 | 0.00 | 0.00 | 0.00 | 99 | 1016.6 |
| 20260506085929 | 48 | 208 | 0.0 | 0.0 | 0.00 | 0.00 | 0.00 | 99 | 1016.9 |
| 20260506085426 | 48 | 208 | 0.0 | 0.0 | 0.00 | 0.00 | 0.00 | 99 | 1016.9 |
| 20260506084922 | 48 | 208 | 0.0 | 0.0 | 0.00 | 0.00 | 0.00 | 99 | 1016.6 |
| 20260506084420 | 48 | 208 | 0.0 | 0.0 | 0.00 | 0.00 | 0.00 | 99 | 1016.6 |
| 20260506083915 | 48 | 208 | 0.0 | 0.0 | 0.00 | 0.00 | 0.00 | 99 | 1016.9 |
| 20260506083413 | 48 | 208 | 0.0 | 0.0 | 0.00 | 0.00 | 0.00 | 99 | 1016.6 |
| 20260506082910 | 48 | 208 | 0.0 | 0.0 | 0.00 | 0.00 | 0.00 | 99 | 1016.6 |
| 20260506082408 | 48 | 208 | 0.0 | 0.0 | 0.00 | 0.00 | 0.00 | 99 | 1016.6 |
| 20260506081903 | 48 | 208 | 0.0 | 0.0 | 0.00 | 0.00 | 0.00 | 99 | 1016.2 |
| 20260506081402 | 48 | 208 | 0.0 | 0.0 | 0.00 | 0.00 | 0.00 | 99 | 1016.6 |
| 20260506080858 | 48 | 208 | 0.0 | 0.0 | 0.00 | 0.00 | 0.00 | 99 | 1016.6 |
| 20260506080355 | 49 | 208 | 0.0 | 0.0 | 0.00 | 0.00 | 0.00 | 99 | 1016.6 |
| 20260506073339 | 49 | 208 | 0.0 | 0.0 | 0.00 | 0.00 | 0.00 | 99 | 1016.2 |
| 20260506072836 | 50 | 208 | 0.0 | 0.0 | 0.00 | 0.00 | 0.00 | 99 | 1016.2 |
| 20260506072334 | 50 | 208 | 0.0 | 0.0 | 0.00 | 0.00 | 0.00 | 99 | 1016.2 |
| 20260506071831 | 50 | 208 | 0.0 | 0.0 | 0.00 | 0.00 | 0.00 | 99 | 1016.2 |
| 20260506071329 | 50 | 208 | 0.0 | 0.0 | 0.00 | 0.00 | 0.00 | 99 | 1016.2 |
| 20260506070826 | 50 | 208 | 0.0 | 0.0 | 0.00 | 0.00 | 0.00 | 99 | 1016.2 |
| 20260506070323 | 50 | 208 | 0.0 | 0.0 | 0.00 | 0.00 | 0.00 | 99 | 1016.2 |
| 20260506062300 | 51 | 212 | 0.0 | 0.0 | 0.00 | 0.00 | 0.00 | 99 | 1015.4 |
| 20260506061756 | 51 | 212 | 0.0 | 0.0 | 0.00 | 0.00 | 0.00 | 99 | 1015.4 |
| 20260506061253 | 51 | 212 | 0.0 | 0.0 | 0.00 | 0.00 | 0.00 | 99 | 1015.8 |
| 20260506060751 | 51 | 211 | 0.0 | 0.0 | 0.00 | 0.00 | 0.00 | 98 | 1015.4 |
| 20260506060249 | 51 | 209 | 0.0 | 0.0 | 0.00 | 0.00 | 0.00 | 98 | 1015.8 |
| 20260506051220 | 53 | 216 | 0.0 | 0.0 | 0.00 | 0.00 | 0.00 | 96 | 1015.4 |
| 20260506050719 | 53 | 216 | 0.0 | 0.0 | 0.00 | 0.00 | 0.00 | 95 | 1015.4 |
| 20260506050215 | 54 | 216 | 0.0 | 0.0 | 0.00 | 0.00 | 0.00 | 95 | 1015.4 |
| 20260506044706 | 54 | 216 | 0.0 | 0.0 | 0.00 | 0.00 | 0.00 | 94 | 1015.1 |
| 20260506044203 | 55 | 218 | 0.0 | 0.0 | 0.00 | 0.00 | 0.00 | 95 | 1015.1 |
| 20260506043700 | 55 | 218 | 0.0 | 0.0 | 0.00 | 0.00 | 0.00 | 95 | 1015.1 |
| 20260506043158 | 55 | 217 | 0.0 | 0.0 | 0.00 | 0.00 | 0.00 | 95 | 1015.4 |
| 20260506042657 | 55 | 218 | 0.0 | 0.0 | 0.00 | 0.00 | 0.00 | 94 | 1015.1 |
| 20260506042155 | 55 | 218 | 0.0 | 0.0 | 0.00 | 0.00 | 0.00 | 93 | 1015.4 |
| 20260506041653 | 56 | 218 | 0.0 | 0.0 | 0.00 | 0.00 | 0.00 | 94 | 1015.1 |
| 20260506041149 | 56 | 218 | 0.0 | 0.0 | 0.00 | 0.00 | 0.00 | 94 | 1015.1 |
| 20260506040647 | 56 | 218 | 0.0 | 0.0 | 0.00 | 0.00 | 0.00 | 93 | 1015.1 |
| 20260506040144 | 57 | 250 | 0.0 | 0.0 | 0.00 | 0.00 | 0.00 | 92 | 1014.8 |
| 20260506035641 | 57 | 250 | 0.0 | 0.0 | 0.00 | 0.00 | 0.00 | 91 | 1015.1 |
| 20260506035137 | 57 | 250 | 0.0 | 0.0 | 0.00 | 0.00 | 0.00 | 91 | 1014.8 |
| 20260506034635 | 57 | 250 | 0.0 | 0.0 | 0.00 | 0.00 | 0.00 | 90 | 1014.8 |
| 20260506034132 | 58 | 250 | 0.0 | 0.0 | 0.00 | 0.00 | 0.00 | 91 | 1014.4 |
| 20260506033629 | 58 | 254 | 0.0 | 0.0 | 0.00 | 0.00 | 0.00 | 90 | 1014.4 |
| 20260506033126 | 58 | 261 | 0.0 | 0.0 | 0.00 | 0.00 | 0.00 | 90 | 1014.8 |
| 20260506032623 | 59 | 261 | 0.0 | 0.0 | 0.00 | 0.00 | 0.00 | 91 | 1014.4 |
| 20260506032120 | 59 | 261 | 0.0 | 0.0 | 0.00 | 0.00 | 0.00 | 89 | 1014.4 |
| 20260506031617 | 59 | 261 | 0.0 | 0.0 | 0.00 | 0.00 | 0.00 | 91 | 1014.8 |
| 20260506031114 | 59 | 262 | 0.0 | 0.0 | 0.00 | 0.00 | 0.00 | 86 | 1014.4 |
| 20260506030612 | 60 | 261 | 0.0 | 0.0 | 0.00 | 0.00 | 0.00 | 89 | 1014.8 |
| 20260506030109 | 60 | 261 | 0.0 | 0.0 | 0.00 | 0.00 | 0.00 | 90 | 1014.4 |
| 20260506025606 | 60 | 261 | 0.0 | 0.0 | 0.00 | 0.00 | 0.00 | 87 | 1014.4 |
| 20260506025102 | 61 | 262 | 0.0 | 0.0 | 0.00 | 0.00 | 0.00 | 89 | 1014.4 |
| 20260506024600 | 61 | 282 | 0.0 | 0.0 | 0.00 | 0.00 | 0.00 | 83 | 1014.4 |
| 20260506024056 | 62 | 262 | 0.0 | 0.0 | 0.00 | 0.00 | 0.00 | 84 | 1014.4 |
| 20260506023551 | 62 | 243 | 0.0 | 0.0 | 0.00 | 0.00 | 0.00 | 85 | 1014.4 |
| 20260506023049 | 62 | 238 | 0.0 | 0.0 | 0.00 | 0.00 | 0.00 | 82 | 1014.1 |
| 20260506022547 | 63 | 239 | 0.0 | 0.0 | 0.00 | 0.00 | 0.00 | 80 | 1014.4 |
| 20260506022044 | 63 | 217 | 0.0 | 0.0 | 0.00 | 0.00 | 0.00 | 78 | 1014.4 |
| 20260506021542 | 64 | 224 | 0.0 | 0.0 | 0.00 | 0.00 | 0.00 | 79 | 1014.1 |
| 20260506021039 | 64 | 297 | 1.0 | 1.0 | 0.00 | 0.00 | 0.00 | 76 | 1014.4 |
| 20260506020536 | 64 | 206 | 1.0 | 1.0 | 0.00 | 0.00 | 0.00 | 75 | 1014.4 |
| 20260506020033 | 64 | 240 | 0.0 | 0.0 | 0.00 | 0.00 | 0.00 | 78 | 1014.1 |
| 20260506015531 | 65 | 262 | 0.0 | 0.0 | 0.00 | 0.00 | 0.00 | 74 | 1014.1 |
| 20260506015027 | 65 | 217 | 0.0 | 0.0 | 0.00 | 0.00 | 0.00 | 77 | 1013.7 |
| 20260506014525 | 66 | 182 | 2.0 | 2.0 | 0.00 | 0.00 | 0.00 | 74 | 1014.4 |
| 20260506014021 | 66 | 195 | 1.0 | 1.0 | 0.00 | 0.00 | 0.00 | 72 | 1014.1 |
| 20260506013519 | 67 | 231 | 0.0 | 0.0 | 0.00 | 0.00 | 0.00 | 75 | 1014.1 |
| 20260506013015 | 68 | 230 | 0.0 | 0.0 | 0.00 | 0.00 | 0.00 | 73 | 1014.1 |
| 20260506012511 | 68 | 245 | 0.0 | 0.0 | 0.00 | 0.00 | 0.00 | 71 | 1014.1 |
| 20260506012009 | 69 | 194 | 1.0 | 1.0 | 0.00 | 0.00 | 0.00 | 73 | 1014.4 |
| 20260506011506 | 68 | 236 | 0.0 | 0.0 | 0.00 | 0.00 | 0.00 | 68 | 1014.1 |
| 20260506011002 | 68 | 327 | 0.0 | 1.0 | 0.00 | 0.00 | 0.00 | 70 | 1014.1 |
| 20260506010502 | 68 | 243 | 0.0 | 0.0 | 0.00 | 0.00 | 0.00 | 70 | 1013.7 |
| 20260506005957 | 68 | 183 | 1.0 | 1.0 | 0.00 | 0.00 | 0.00 | 69 | 1014.1 |
| 20260506005455 | 68 | 278 | 0.0 | 1.0 | 0.00 | 0.00 | 0.00 | 70 | 1014.1 |
| 20260506004950 | 68 | 210 | 1.0 | 1.0 | 0.00 | 0.00 | 0.00 | 70 | 1014.1 |
| 20260506004448 | 68 | 248 | 0.0 | 0.0 | 0.00 | 0.00 | 0.00 | 69 | 1014.1 |
| 20260506003944 | 68 | 210 | 1.0 | 1.0 | 0.00 | 0.00 | 0.00 | 71 | 1014.1 |
| 20260506003441 | 69 | 186 | 2.0 | 2.0 | 0.00 | 0.00 | 0.00 | 67 | 1014.4 |
| 20260506002937 | 68 | 218 | 1.0 | 1.0 | 0.00 | 0.00 | 0.00 | 70 | 1014.1 |
| 20260506002433 | 68 | 230 | 1.0 | 1.0 | 0.00 | 0.00 | 0.00 | 69 | 1014.1 |
| 20260506001929 | 69 | 220 | 1.0 | 1.0 | 0.00 | 0.00 | 0.00 | 67 | 1014.1 |
| 20260506001426 | 68 | 212 | 1.0 | 1.0 | 0.00 | 0.00 | 0.00 | 68 | 1014.1 |
| 20260506000923 | 69 | 168 | 2.0 | 2.0 | 0.00 | 0.00 | 0.00 | 67 | 1014.4 |
| 20260506000423 | 70 | 185 | 2.0 | 3.0 | 0.00 | 0.00 | 0.00 | 69 | 1014.1 |
| 20260505235917 | 69 | 179 | 2.0 | 2.0 | 0.00 | 0.00 | 0.00 | 66 | 1014.4 |
| 20260505235415 | 69 | 278 | 2.0 | 2.0 | 0.00 | 0.00 | 0.00 | 66 | 1014.4 |
| 20260505234912 | 68 | 239 | 1.0 | 1.0 | 0.00 | 0.00 | 0.00 | 67 | 1014.4 |
| 20260505234410 | 69 | 150 | 1.0 | 2.0 | 0.00 | 0.00 | 0.00 | 66 | 1014.4 |
| 20260505233906 | 69 | 197 | 0.0 | 1.0 | 0.00 | 0.00 | 0.00 | 66 | 1014.4 |
| 20260505233404 | 69 | 181 | 4.0 | 6.0 | 0.00 | 0.00 | 0.00 | 68 | 1014.8 |
| 20260505232901 | 68 | 178 | 2.0 | 3.0 | 0.00 | 0.00 | 0.00 | 70 | 1014.8 |
| 20260505232359 | 69 | 173 | 2.0 | 2.0 | 0.00 | 0.00 | 0.00 | 65 | 1014.4 |
| 20260505231855 | 69 | 242 | 1.0 | 2.0 | 0.00 | 0.00 | 0.00 | 68 | 1014.8 |
| 20260505231353 | 69 | 222 | 0.0 | 0.0 | 0.00 | 0.00 | 0.00 | 68 | 1014.8 |
| 20260505230851 | 68 | 236 | 1.0 | 2.0 | 0.00 | 0.00 | 0.00 | 69 | 1015.1 |
| 20260505230348 | 68 | 146 | 1.0 | 2.0 | 0.00 | 0.00 | 0.00 | 71 | 1014.8 |
| 20260505225844 | 68 | 197 | 3.0 | 3.0 | 0.00 | 0.00 | 0.00 | 69 | 1015.1 |
| 20260505225342 | 67 | 187 | 3.0 | 3.0 | 0.00 | 0.00 | 0.00 | 70 | 1015.1 |
| 20260505224837 | 68 | 140 | 3.0 | 3.0 | 0.00 | 0.00 | 0.00 | 70 | 1014.8 |
| 20260505224335 | 68 | 216 | 1.0 | 1.0 | 0.00 | 0.00 | 0.00 | 68 | 1015.1 |
| 20260505223832 | 67 | 235 | 1.0 | 1.0 | 0.00 | 0.00 | 0.00 | 70 | 1015.1 |
| 20260505223329 | 67 | 242 | 2.0 | 3.0 | 0.00 | 0.00 | 0.00 | 70 | 1015.1 |
| 20260505222824 | 67 | 188 | 8.0 | 9.0 | 0.00 | 0.00 | 0.00 | 70 | 1015.1 |
| 20260505222321 | 66 | 223 | 4.0 | 5.0 | 0.00 | 0.00 | 0.00 | 71 | 1015.1 |
| 20260505221818 | 67 | 247 | 4.0 | 5.0 | 0.00 | 0.00 | 0.00 | 69 | 1015.1 |
| 20260505221315 | 66 | 179 | 2.0 | 3.0 | 0.00 | 0.00 | 0.00 | 73 | 1015.1 |
| 20260505220812 | 68 | 280 | 1.0 | 1.0 | 0.00 | 0.00 | 0.00 | 69 | 1015.1 |
| 20260505220309 | 66 | 185 | 2.0 | 3.0 | 0.00 | 0.00 | 0.00 | 73 | 1015.1 |
| 20260505215807 | 67 | 218 | 4.0 | 5.0 | 0.00 | 0.00 | 0.00 | 72 | 1015.1 |
| 20260505215305 | 66 | 199 | 2.0 | 2.0 | 0.00 | 0.00 | 0.00 | 70 | 1015.4 |
| 20260505214802 | 65 | 196 | 3.0 | 5.0 | 0.00 | 0.00 | 0.00 | 74 | 1015.4 |
| 20260505214259 | 66 | 166 | 4.0 | 6.0 | 0.00 | 0.00 | 0.00 | 74 | 1015.4 |
| 20260505213756 | 66 | 219 | 2.0 | 2.0 | 0.00 | 0.00 | 0.00 | 72 | 1015.4 |
| 20260505213254 | 66 | 180 | 2.0 | 2.0 | 0.00 | 0.00 | 0.00 | 73 | 1015.4 |
| 20260505212749 | 66 | 220 | 3.0 | 3.0 | 0.00 | 0.00 | 0.00 | 72 | 1015.4 |
| 20260505212247 | 66 | 173 | 4.0 | 5.0 | 0.00 | 0.00 | 0.00 | 73 | 1015.4 |